TimeEST,TemperatureF,Dew PointF,Humidity,Sea Level PressureIn,VisibilityMPH,Wind Direction,Wind SpeedMPH,Gust SpeedMPH,PrecipitationIn,Events,Conditions,WindDirDegrees,DateUTC
12:15 AM,32.0,32.0,100,30.06,3.0,SW,4.6,-,N/A,Rain,Light Rain,230,2013-02-03 05:15:00
12:35 AM,32.0,32.0,100,30.05,3.0,SW,4.6,-,N/A,,Mostly Cloudy,220,2013-02-03 05:35:00
12:55 AM,32.0,32.0,100,30.06,5.0,SW,4.6,-,N/A,Rain,Light Rain,220,2013-02-03 05:55:00
1:15 AM,32.0,32.0,100,30.05,5.0,SW,5.8,-,N/A,Rain,Light Rain,220,2013-02-03 06:15:00
1:35 AM,32.0,32.0,100,30.05,2.5,SW,6.9,-,0.01,Snow,Light Snow,220,2013-02-03 06:35:00
1:55 AM,32.0,32.0,100,30.04,5.0,SW,5.8,-,0.01,,Overcast,230,2013-02-03 06:55:00
2:15 AM,32.0,32.0,100,30.04,6.0,WSW,6.9,-,N/A,,Overcast,240,2013-02-03 07:15:00
2:35 AM,32.0,30.2,93,30.04,9.0,SW,6.9,-,N/A,,Overcast,230,2013-02-03 07:35:00
2:55 AM,32.0,30.2,93,30.04,9.0,WSW,5.8,-,N/A,,Overcast,240,2013-02-03 07:55:00
3:15 AM,32.0,30.2,93,30.03,10.0,WSW,5.8,-,N/A,,Overcast,240,2013-02-03 08:15:00
3:35 AM,32.0,30.2,93,30.03,10.0,WSW,6.9,-,N/A,,Overcast,240,2013-02-03 08:35:00
3:55 AM,32.0,28.4,87,30.02,10.0,SW,6.9,-,N/A,,Overcast,220,2013-02-03 08:55:00
4:15 AM,32.0,28.4,87,30.01,10.0,SW,6.9,-,N/A,,Overcast,230,2013-02-03 09:15:00
4:55 AM,32.0,28.4,87,30.00,10.0,WSW,5.8,-,N/A,,Overcast,250,2013-02-03 09:55:00
5:15 AM,32.0,28.4,87,30.00,10.0,WSW,5.8,-,N/A,,Overcast,240,2013-02-03 10:15:00
5:35 AM,32.0,28.4,87,29.99,10.0,WSW,5.8,-,N/A,,Mostly Cloudy,250,2013-02-03 10:35:00
5:55 AM,32.0,28.4,87,29.99,10.0,WSW,4.6,-,N/A,,Mostly Cloudy,240,2013-02-03 10:55:00
6:15 AM,32.0,28.4,87,29.98,10.0,WSW,5.8,-,N/A,,Mostly Cloudy,240,2013-02-03 11:15:00
6:35 AM,32.0,28.4,87,29.98,10.0,WSW,8.1,-,N/A,,Overcast,250,2013-02-03 11:35:00
7:15 AM,32.0,30.2,93,29.97,1.8,WSW,4.6,-,0.09,Snow,Light Snow,240,2013-02-03 12:15:00
7:35 AM,32.0,30.2,93,29.97,1.2,SW,5.8,-,0.26,Snow,Light Snow,230,2013-02-03 12:35:00
7:55 AM,30.2,30.2,100,29.97,1.5,WSW,3.5,-,0.29,Snow,Light Snow,240,2013-02-03 12:55:00
8:15 AM,32.0,30.2,93,29.98,1.2,WSW,3.5,-,0.05,Snow,Light Snow,250,2013-02-03 13:15:00
8:35 AM,32.0,30.2,93,29.98,1.5,SW,3.5,-,0.08,Snow,Light Snow,230,2013-02-03 13:35:00
8:55 AM,32.0,32.0,100,29.97,1.2,SW,4.6,-,0.15,Snow,Light Snow,230,2013-02-03 13:55:00
9:15 AM,32.0,32.0,100,29.97,1.2,WSW,4.6,-,0.07,Snow,Light Snow,250,2013-02-03 14:15:00
9:35 AM,32.0,32.0,100,29.97,1.0,WSW,5.8,-,0.19,Snow,Light Snow,240,2013-02-03 14:35:00
9:55 AM,32.0,32.0,100,29.97,1.2,WSW,4.6,-,0.34,Snow,Light Snow,250,2013-02-03 14:55:00
10:15 AM,32.0,32.0,100,29.97,0.8,WSW,5.8,-,0.24,Snow,Light Snow,240,2013-02-03 15:15:00
10:35 AM,32.0,32.0,100,29.97,1.2,WSW,5.8,-,0.40,Snow,Light Snow,240,2013-02-03 15:35:00
10:55 AM,32.0,32.0,100,29.97,2.5,WSW,5.8,-,0.43,Snow,Light Snow,240,2013-02-03 15:55:00
11:15 AM,32.0,32.0,100,29.97,3.0,West,4.6,-,N/A,Rain,Light Rain,260,2013-02-03 16:15:00
11:35 AM,32.0,32.0,100,29.97,2.0,SW,4.6,-,0.01,Snow,Light Snow,230,2013-02-03 16:35:00
11:55 AM,32.0,32.0,100,29.97,1.2,SW,5.8,-,0.02,Snow,Light Snow,230,2013-02-03 16:55:00
12:15 PM,32.0,32.0,100,29.97,2.5,SW,6.9,-,N/A,Snow,Light Snow,220,2013-02-03 17:15:00
12:35 PM,32.0,32.0,100,29.97,3.0,SW,6.9,-,N/A,Rain,Light Rain,230,2013-02-03 17:35:00
12:55 PM,32.0,32.0,100,29.96,4.0,SW,9.2,-,N/A,Rain,Light Rain,220,2013-02-03 17:55:00
1:15 PM,32.0,32.0,100,29.97,1.2,West,8.1,-,0.01,Snow,Light Snow,280,2013-02-03 18:15:00
1:35 PM,33.8,30.2,87,29.97,10.0,West,11.5,-,0.02,Rain,Light Rain,260,2013-02-03 18:35:00
1:55 PM,33.8,28.4,81,29.98,8.0,West,11.5,16.1,0.02,Rain,Light Rain,260,2013-02-03 18:55:00
2:15 PM,35.6,28.4,75,29.98,10.0,WSW,10.4,19.6,N/A,,Overcast,250,2013-02-03 19:15:00
2:35 PM,35.6,28.4,75,29.98,10.0,West,16.1,23.0,N/A,Rain,Light Rain,260,2013-02-03 19:35:00
2:55 PM,35.6,26.6,70,29.99,10.0,West,12.7,16.1,N/A,Rain,Light Rain,260,2013-02-03 19:55:00
3:15 PM,33.8,28.4,81,30.00,8.0,West,10.4,18.4,N/A,,Overcast,270,2013-02-03 20:15:00
3:35 PM,33.8,28.4,81,30.01,9.0,WNW,8.1,-,0.01,Rain,Light Rain,290,2013-02-03 20:35:00
3:55 PM,33.8,28.4,81,30.02,9.0,WNW,9.2,-,0.01,Rain,Light Rain,300,2013-02-03 20:55:00
4:15 PM,35.6,26.6,70,30.03,10.0,WNW,11.5,24.2,N/A,,Overcast,290,2013-02-03 21:15:00
4:35 PM,33.8,26.6,75,30.04,10.0,West,9.2,-,N/A,Rain,Light Rain,280,2013-02-03 21:35:00
4:55 PM,33.8,26.6,75,30.04,9.0,West,11.5,-,N/A,,Overcast,270,2013-02-03 21:55:00
5:15 PM,33.8,26.6,75,30.04,9.0,West,13.8,-,N/A,Rain,Light Rain,260,2013-02-03 22:15:00
5:35 PM,33.8,26.6,75,30.05,10.0,West,11.5,18.4,N/A,Rain,Light Rain,280,2013-02-03 22:35:00
5:55 PM,33.8,26.6,75,30.07,10.0,West,10.4,-,N/A,Rain,Light Rain,280,2013-02-03 22:55:00
6:15 PM,32.0,26.6,80,30.08,9.0,West,11.5,17.3,N/A,Rain,Light Rain,280,2013-02-03 23:15:00
6:35 PM,32.0,24.8,75,30.09,10.0,West,10.4,-,N/A,Rain,Light Rain,270,2013-02-03 23:35:00
6:55 PM,32.0,24.8,75,30.10,10.0,West,11.5,-,N/A,,Overcast,280,2013-02-03 23:55:00
7:15 PM,32.0,23.0,69,30.11,10.0,West,10.4,-,N/A,,Overcast,270,2013-02-04 00:15:00
7:35 PM,32.0,23.0,69,30.12,10.0,West,8.1,17.3,N/A,,Overcast,270,2013-02-04 00:35:00
7:55 PM,32.0,21.2,64,30.13,10.0,West,11.5,18.4,N/A,,Overcast,280,2013-02-04 00:55:00
8:15 PM,32.0,19.4,60,30.14,10.0,West,11.5,-,N/A,,Overcast,280,2013-02-04 01:15:00
8:35 PM,32.0,21.2,64,30.14,10.0,WNW,9.2,-,N/A,,Overcast,300,2013-02-04 01:35:00
8:55 PM,32.0,19.4,60,30.15,10.0,WNW,8.1,-,N/A,,Overcast,290,2013-02-04 01:55:00
9:15 PM,32.0,19.4,60,30.15,10.0,WNW,6.9,-,N/A,,Overcast,300,2013-02-04 02:15:00
9:35 PM,30.2,19.4,64,30.15,10.0,West,4.6,-,N/A,,Overcast,280,2013-02-04 02:35:00
9:55 PM,30.2,19.4,64,30.15,10.0,WNW,4.6,-,N/A,,Overcast,290,2013-02-04 02:55:00
10:15 PM,30.2,19.4,64,30.15,10.0,West,3.5,-,N/A,,Overcast,280,2013-02-04 03:15:00
10:35 PM,30.2,21.2,69,30.15,10.0,Calm,Calm,-,N/A,,Overcast,0,2013-02-04 03:35:00
10:55 PM,30.2,21.2,69,30.16,10.0,West,3.5,-,N/A,,Overcast,280,2013-02-04 03:55:00
11:15 PM,30.2,21.2,69,30.15,10.0,West,3.5,-,N/A,,Overcast,260,2013-02-04 04:15:00
11:35 PM,30.2,21.2,69,30.15,10.0,West,4.6,-,N/A,,Overcast,270,2013-02-04 04:35:00
11:55 PM,30.2,21.2,69,30.15,10.0,West,4.6,-,N/A,,Overcast,260,2013-02-04 04:55:00